Location: Lane
(33.5226°N, 79.8788°W)
Time: 04:40:41
(UTC+00:00)

Vanguard 2 - Pass Details

Date: 04 October 2022
Orbit: 553 x 2933 km, 32.9° (Epoch: 26 November)

Event Time Altitude Azimuth Distance (km) Brightness Sun altitude
Rises 23:34:48 0° 285° (WNW) 6,256 14.0 -8.1°
Reaches altitude 10° 23:38:48 10° 280° (W) 5,447 13.4 -9.0°
Maximum altitude 23:54:58 50° 212° (SSW) 3,457 11.0 -12.3°
Drops below altitude 10° 00:10:33 10° 143° (SE) 5,240 11.4 -15.6°
Enters shadow 00:14:19 - 138° (SE) 5,998 11.7 -16.4°
Sets 00:14:22 0° 138° (SE) 6,010 - -16.4°
